Flag for Japan Weather past 2 weeks in Utsunomiya, Japan

Now
63 °F

Mild.


Feels Like: 63 °F
Forecast: 61 / 85 °F
Wind: 3 mph from North

Location: Mito

Current Time: May 30, 2015 at 6:09:59 AM

Latest Report: May 30, 2015 at 5:00 AM


Visibility: N/A

Pressure: 29.64 "Hg

Humidity: 91%

Dew point: 60 °F

Location of UtsunomiyaLocation

Historic Weather in Utsunomiya — Graph

°F

Utsunomiya temperature yesterday

Maximum temperature yesterday: 72 °F (at 11:00 AM)
Minimum temperature yesterday: 64 °F (at 2:00 AM)
Average temperature yesterday: 68 °F

Past Weeks' High & Low Weather Summary

 TemperatureHumidityPressure
High81 °F (May 18, 1:00 PM)98% (May 19, 3:00 AM)30.01 "Hg (May 19, 3:00 AM)
Low51 °F (May 22, 4:00 AM)21% (May 18, 12:00 PM)29.47 "Hg (May 20, 4:00 PM)
Average67 °F72%29.81 "Hg
* Reported May 15 4:00 AM — May 30 4:00 AM, Utsunomiya, Weather by CustomWeather, © 2015

Note: Actual official high and low records may vary slightly from our data, if they occured in-between our weather recording intervals... More about our weather records

Advertising

Utsunomiya weather history for previous 24 hours

 ConditionsComfort  
Time TempWeatherWind HumidityBarometerVisibility
4:00 AM
Sat, May 30
64 °FMild.5 mph89%29.64 "HgN/A
3:00 AM64 °FPassing clouds.5 mph91%29.65 "Hg9 mi
2:00 AM65 °FMild.7 mph90%29.66 "HgN/A
1:00 AM66 °FMild.6 mph89%29.67 "HgN/A
12:00 AM66 °FMild.12 mph87%29.69 "HgN/A
11:00 PM
Fri, May 29
66 °FMild.7 mph94%29.72 "HgN/A
10:00 PM66 °FMild.9 mph96%29.75 "HgN/A
9:00 PM67 °FLight rain. Overcast.12 mph97%29.75 "Hg6 mi
8:00 PM68 °FMild.13 mph95%29.75 "HgN/A
7:00 PM68 °FMild.7 mph95%29.75 "HgN/A
6:00 PM67 °FMild.12 mph95%29.75 "HgN/A
5:00 PM67 °FMild.9 mph95%29.76 "HgN/A
4:00 PM67 °FMild.12 mph96%29.77 "HgN/A
3:00 PM67 °FLight rain. Overcast.9 mph95%29.80 "Hg2 mi
2:00 PM68 °FMild.12 mph90%29.82 "HgN/A
1:00 PM70 °FMild.8 mph79%29.84 "HgN/A
12:00 PM72 °FMild.8 mph74%29.86 "HgN/A
11:00 AM72 °FMild.7 mph73%29.90 "HgN/A
10:00 AM72 °FMild.6 mph71%29.92 "HgN/A
9:00 AM71 °FOvercast.5 mph74%29.93 "Hg9 mi
8:00 AM71 °FMild.5 mph77%29.94 "HgN/A
Weather by CustomWeather, © 2015

See weather overviewHow to use our weather pages